Location: Delta State University
(33.7460°N, 90.7320°W)
Time: 10:13:19
(UTC-05:00)

Iridium 13 - Visible Passes

Search period start: 24 April 2017 00:00
Search period end: 04 May 2017 00:00
Orbit: 776 x 779 km, 86.4° (Epoch: 22 April)

Date Brightness Start Highest point End Pass type
(mag) Time Alt. Az. Time Alt. Az. Time Alt. Az.
24 Apr 7.6 23:06:01 10° N 23:07:45 21° NNE 23:07:45 21° NNE visible
25 Apr 7.6 22:32:58 10° NNE 22:34:30 17° NNE 22:34:30 17° NNE visible
26 Apr 8.2 00:13:53 10° NNW 00:14:58 15° NW 00:14:58 15° NW visible
26 Apr 7.8 22:00:41 10° NE 22:01:15 12° NE 22:01:15 12° NE visible
26 Apr 7.7 23:39:42 10° NNW 23:41:44 23° NNW 23:41:44 23° NNW visible
27 Apr 7.2 23:06:00 10° N 23:08:29 29° N 23:08:29 29° N visible
28 Apr 7.0 22:32:41 10° NNE 22:35:15 27° NNE 22:35:15 27° NNE visible
29 Apr 8.2 00:14:45 10° NW 00:15:45 13° NW 00:15:45 13° NW visible
29 Apr 7.3 21:59:52 10° NNE 22:02:02 19° NE 22:02:02 19° NE visible
29 Apr 7.6 23:40:06 10° NNW 23:42:31 23° NW 23:42:31 23° NW visible
30 Apr 7.7 21:28:19 10° NE 21:28:49 11° ENE 21:28:49 11° ENE visible
30 Apr 6.8 23:06:08 10° N 23:09:19 37° NNW 23:09:19 37° NNW visible
01 May 6.4 22:32:34 10° N 22:36:07 42° NNE 22:36:07 42° NNE visible
02 May 6.6 21:59:25 10° NNE 22:02:55 30° NE 22:02:55 30° NE visible
02 May 7.7 23:40:42 10° NW 23:43:24 20° WNW 23:43:24 20° WNW visible
03 May 7.2 21:26:55 10° NE 21:29:45 18° ENE 21:29:45 18° ENE visible
03 May 6.8 23:06:23 10° NNW 23:10:14 37° WNW 23:10:14 37° WNW visible
